Anaktuvuk Pass, AK

12:44 PM AKDT on March 24, 2017 (GMT -0800)
Anaktuvuk Pass

Weather History for PAKP - January, 2014

Change the Weather History Date:

Sunday, January 5, 2014

  Actual Average Record
Temperature  
Mean Temperature 4 °F -  
Max Temperature 12 °F -3 °F 26 °F (2016)
Min Temperature -5 °F -15 °F -40 °F (1997)
Degree Days  
Heating Degree Days 62    
Moisture  
Dew Point -3 °F    
Average Humidity 74    
Maximum Humidity 85    
Minimum Humidity 62    
Precipitation  
Precipitation 0.00 in - - ()
Sea Level Pressure  
Sea Level Pressure 29.69 in    
Wind  
Wind Speed 5 mph (NNE)    
Max Wind Speed 12 mph    
Max Gust Speed -    
Visibility 10 miles    
Events      
Averages and records for this station are not official NWS values.
T = Trace of Precipitation, MM = Missing Value Source: NWS Daily Summary

Daily Weather History Graph

Daily Weather History Graph

Search for Another Location

Airport or City:

Trip Planner

Search our weather history database for the weather conditions in past years. The results will help you decide how hot, cold, wet, or windy it might be!

Date:

Astronomy

Jan. 05, 2014 Rise Set
Actual Time 12:42 PM AKST 1:42 PM AKST
Civil Twilight 10:20 AM AKST 4:05 PM AKST
Nautical Twilight 8:54 AM AKST 5:31 PM AKST
Astronomical Twilight 7:43 AM AKST 6:41 PM AKST
Moon 11:30 AM AKST (1/5) 11:37 PM AKST (1/5)
Length of Visible Light 5h 45m
Length of Day
0h 59m
Waxing Crescent, 26% of the Moon is Illuminated
Jan 5
Waxing Crescent
Jan 7
First Quarter
Jan 15
Full
Jan 23
Last Quarter
Jan 30
New

Hourly Weather History & Observations

Time (AKST) Temp. Windchill Dew Point Humidity Pressure Visibility Wind Dir Wind Speed Gust Speed Precip Events Conditions
12:16 AM -5.8 °F -14.5 °F -11.2 °F 77% 29.92 in 10.0 mi SSW 3.5 mph - N/A   Clear
12:36 AM -2.2 °F - -9.4 °F 71% 29.91 in 10.0 mi Calm Calm - N/A   Clear
12:56 AM -2.2 °F - -9.4 °F 71% 29.90 in 10.0 mi Calm Calm - N/A   Clear
1:16 AM -4.0 °F -12.4 °F -11.2 °F 71% 29.89 in 10.0 mi NNE 3.5 mph - N/A   Clear
1:36 AM -2.2 °F -14.2 °F -7.6 °F 78% 29.88 in 10.0 mi NNW 5.8 mph - N/A   Clear
1:56 AM -2.2 °F -15.6 °F -9.4 °F 71% 29.87 in 10.0 mi North 6.9 mph - N/A   Clear
2:16 AM -2.2 °F -15.6 °F -9.4 °F 71% 29.86 in 10.0 mi NNE 6.9 mph - N/A   Clear
2:36 AM -0.4 °F -12.0 °F -7.6 °F 72% 29.85 in 10.0 mi North 5.8 mph - N/A   Clear
2:56 AM -0.4 °F -14.7 °F -7.6 °F 72% 29.84 in 10.0 mi North 8.1 mph - N/A   Clear
3:16 AM 3.2 °F -9.1 °F -2.2 °F 78% 29.83 in 10.0 mi North 6.9 mph - N/A   Clear
3:36 AM 1.4 °F -9.9 °F -4.0 °F 78% 29.81 in 10.0 mi North 5.8 mph - N/A   Clear
3:56 AM 3.2 °F -11.3 °F -4.0 °F 72% 29.81 in 10.0 mi NNE 9.2 mph - N/A   Clear
4:16 AM 3.2 °F -10.3 °F -4.0 °F 72% 29.80 in 10.0 mi NNE 8.1 mph - N/A   Clear
4:36 AM 1.4 °F -12.5 °F -4.0 °F 78% 29.79 in 10.0 mi NNE 8.1 mph - N/A   Clear
4:56 AM 3.2 °F -11.3 °F -2.2 °F 78% 29.78 in 10.0 mi NNE 9.2 mph - N/A   Clear
5:16 AM 3.2 °F -11.3 °F -4.0 °F 72% 29.78 in 10.0 mi NNE 9.2 mph - N/A   Clear
5:36 AM 1.4 °F -13.5 °F -5.8 °F 72% 29.77 in 10.0 mi North 9.2 mph - N/A   Clear
5:56 AM 1.4 °F -14.5 °F -4.0 °F 78% 29.76 in 10.0 mi NNE 10.4 mph - N/A   Clear
6:16 AM 3.2 °F -10.3 °F -2.2 °F 78% 29.75 in 10.0 mi North 8.1 mph - N/A   Clear
6:36 AM 3.2 °F -9.1 °F -2.2 °F 78% 29.74 in 10.0 mi North 6.9 mph - N/A   Clear
6:56 AM 3.2 °F -9.1 °F -2.2 °F 78% 29.73 in 10.0 mi NNE 6.9 mph - N/A   Clear
7:16 AM 1.4 °F -11.3 °F -5.8 °F 72% 29.73 in 10.0 mi NNE 6.9 mph - N/A   Clear
7:36 AM 1.4 °F -11.3 °F -4.0 °F 78% 29.72 in 10.0 mi NNE 6.9 mph - N/A   Clear
7:56 AM 1.4 °F -12.5 °F -5.8 °F 72% 29.72 in 10.0 mi NNE 8.1 mph - N/A   Clear
8:16 AM -0.4 °F -15.7 °F -7.6 °F 72% 29.71 in 10.0 mi NNE 9.2 mph - N/A   Clear
8:36 AM 1.4 °F -9.9 °F -5.8 °F 72% 29.70 in 10.0 mi North 5.8 mph - N/A   Clear
8:56 AM 1.4 °F -11.3 °F -5.8 °F 72% 29.70 in 10.0 mi North 6.9 mph - N/A   Clear
9:16 AM 1.4 °F -9.9 °F -2.2 °F 85% 29.70 in 10.0 mi North 5.8 mph - N/A   Clear
9:36 AM 1.4 °F -8.3 °F -5.8 °F 72% 29.69 in 10.0 mi North 4.6 mph - N/A   Clear
9:56 AM -0.4 °F -14.7 °F -7.6 °F 72% 29.69 in 10.0 mi NNE 8.1 mph - N/A   Clear
10:16 AM 1.4 °F -12.5 °F -4.0 °F 78% 29.69 in 10.0 mi North 8.1 mph - N/A   Clear
10:36 AM 1.4 °F - -4.0 °F 78% 29.68 in 10.0 mi Calm Calm - N/A   Clear
10:56 AM 1.4 °F -6.2 °F -4.0 °F 78% 29.67 in 10.0 mi NNW 3.5 mph - N/A   Clear
11:16 AM 3.2 °F -4.2 °F -2.2 °F 78% 29.67 in 10.0 mi SE 3.5 mph - N/A   Clear
11:36 AM 3.2 °F -6.2 °F -2.2 °F 78% 29.66 in 10.0 mi NNE 4.6 mph - N/A   Clear
11:56 AM 5.0 °F -6.9 °F -2.2 °F 72% 29.65 in 10.0 mi North 6.9 mph - N/A   Partly Cloudy
12:16 PM 3.2 °F -13.1 °F -4.0 °F 72% 29.64 in 10.0 mi NNE 11.5 mph - N/A   Clear
12:36 PM 3.2 °F -12.2 °F -4.0 °F 72% 29.63 in 10.0 mi NNE 10.4 mph - N/A   Clear
12:56 PM 1.4 °F -11.3 °F -5.8 °F 72% 29.63 in 10.0 mi NNE 6.9 mph - N/A   Mostly Cloudy
1:16 PM 3.2 °F -11.3 °F -2.2 °F 78% 29.63 in 10.0 mi NNE 9.2 mph - N/A   Overcast
1:36 PM 3.2 °F -10.3 °F -0.4 °F 85% 29.63 in 10.0 mi NNE 8.1 mph - N/A   Overcast
1:56 PM 3.2 °F -6.2 °F -2.2 °F 78% 29.64 in 10.0 mi NNW 4.6 mph - N/A   Overcast
2:16 PM 3.2 °F -6.2 °F -2.2 °F 78% 29.63 in 10.0 mi North 4.6 mph - N/A   Overcast
2:36 PM 3.2 °F - -2.2 °F 78% 29.63 in 9.0 mi Calm Calm - N/A   Overcast
2:56 PM 3.2 °F - -2.2 °F 78% 29.63 in 10.0 mi Calm Calm - N/A   Overcast
3:16 PM 5.0 °F - -2.2 °F 72% 29.63 in 10.0 mi Calm Calm - N/A   Overcast
3:36 PM 5.0 °F - -0.4 °F 78% 29.62 in 10.0 mi Calm Calm - N/A   Overcast
3:56 PM 3.2 °F - -2.2 °F 78% 29.62 in 10.0 mi Calm Calm - N/A   Overcast
4:16 PM 5.0 °F - -0.4 °F 78% 29.61 in 10.0 mi Calm Calm - N/A   Overcast
4:36 PM 3.2 °F - -2.2 °F 78% 29.61 in 10.0 mi Calm Calm - N/A   Overcast
4:56 PM 3.2 °F -6.2 °F -2.2 °F 78% 29.61 in 10.0 mi SSW 4.6 mph - N/A   Scattered Clouds
5:16 PM 3.2 °F -6.2 °F -5.8 °F 66% 29.60 in 10.0 mi South 4.6 mph - N/A   Partly Cloudy
5:36 PM 1.4 °F -9.9 °F -5.8 °F 72% 29.60 in 10.0 mi SSW 5.8 mph - N/A   Scattered Clouds
5:56 PM 1.4 °F - -4.0 °F 78% 29.60 in 10.0 mi Calm Calm - N/A   Overcast
6:16 PM 1.4 °F - -2.2 °F 85% 29.60 in 10.0 mi Calm Calm - N/A   Overcast
6:36 PM 3.2 °F -6.2 °F -4.0 °F 72% 29.60 in 10.0 mi SSW 4.6 mph - N/A   Mostly Cloudy
6:56 PM 1.4 °F -8.3 °F -4.0 °F 78% 29.60 in 10.0 mi SSW 4.6 mph - N/A   Mostly Cloudy
7:16 PM 5.0 °F - -0.4 °F 78% 29.60 in 10.0 mi Calm Calm - N/A   Overcast
7:36 PM 6.8 °F - -0.4 °F 72% 29.59 in 10.0 mi Calm Calm - N/A   Overcast
7:56 PM 6.8 °F - -0.4 °F 72% 29.59 in 10.0 mi Calm Calm - N/A   Overcast
8:16 PM 6.8 °F - -2.2 °F 67% 29.59 in 10.0 mi Calm Calm - N/A   Overcast
8:36 PM 6.8 °F - -0.4 °F 72% 29.59 in 10.0 mi Calm Calm - N/A   Overcast
8:56 PM 8.6 °F -2.6 °F 1.4 °F 73% 29.59 in 10.0 mi South 6.9 mph - N/A   Overcast
9:16 PM 10.4 °F 0.8 °F 1.4 °F 67% 29.59 in 10.0 mi South 5.8 mph - N/A   Overcast
9:36 PM 10.4 °F 2.2 °F 1.4 °F 67% 29.59 in 10.0 mi South 4.6 mph - N/A   Overcast
9:56 PM 10.4 °F -1.5 °F 1.4 °F 67% 29.59 in 10.0 mi South 8.1 mph - N/A   Overcast
10:16 PM 12.2 °F 1.7 °F 3.2 °F 67% 29.59 in 10.0 mi South 6.9 mph - N/A   Overcast
10:36 PM 10.4 °F -3.3 °F 1.4 °F 67% 29.59 in 10.0 mi SSE 10.4 mph - N/A   Overcast
10:56 PM 10.4 °F 0.8 °F 1.4 °F 67% 29.60 in 10.0 mi SSW 5.8 mph - N/A   Overcast
11:16 PM 12.2 °F -1.0 °F 1.4 °F 62% 29.60 in 10.0 mi SW 10.4 mph - N/A   Overcast
11:36 PM 12.2 °F -1.8 °F 3.2 °F 67% 29.60 in 10.0 mi SW 11.5 mph - N/A   Overcast
11:56 PM 12.2 °F -1.0 °F 3.2 °F 67% 29.60 in 10.0 mi SW 10.4 mph - N/A   Overcast